TimeAKDT,TemperatureF,Dew PointF,Humidity,Sea Level PressureIn,VisibilityMPH,Wind Direction,Wind SpeedMPH,Gust SpeedMPH,PrecipitationIn,Events,Conditions,WindDirDegrees,DateUTC
12:05 AM,51.8,50.0,94,30.26,10.0,NNW,3.5,-,N/A,,Overcast,330,2012-09-20 08:05:00
12:53 AM,51.1,51.1,100,30.25,10.0,NNW,5.8,-,N/A,,Overcast,340,2012-09-20 08:53:00
1:13 AM,51.8,51.8,100,30.25,10.0,NW,4.6,-,N/A,,Overcast,320,2012-09-20 09:13:00
1:53 AM,52.0,51.1,97,30.24,10.0,Calm,Calm,-,N/A,,Overcast,0,2012-09-20 09:53:00
2:53 AM,52.0,51.1,97,30.24,10.0,NNW,5.8,-,N/A,,Overcast,340,2012-09-20 10:53:00
3:43 AM,51.8,51.8,100,30.22,9.0,East,3.5,-,N/A,,Overcast,80,2012-09-20 11:43:00
3:53 AM,52.0,51.1,97,30.22,9.0,ESE,4.6,-,N/A,,Overcast,120,2012-09-20 11:53:00
4:53 AM,52.0,52.0,100,30.21,10.0,East,3.5,-,N/A,,Overcast,80,2012-09-20 12:53:00
5:28 AM,53.6,51.8,94,30.19,10.0,NW,3.5,-,N/A,,Overcast,310,2012-09-20 13:28:00
5:40 AM,51.8,51.8,100,30.19,10.0,WNW,4.6,-,N/A,,Overcast,300,2012-09-20 13:40:00
5:51 AM,51.8,51.8,100,30.20,10.0,West,4.6,-,N/A,,Overcast,270,2012-09-20 13:51:00
5:53 AM,52.0,52.0,100,30.20,10.0,West,5.8,-,N/A,,Overcast,260,2012-09-20 13:53:00
6:53 AM,52.0,52.0,100,30.19,10.0,Calm,Calm,-,N/A,,Overcast,0,2012-09-20 14:53:00
7:53 AM,53.1,53.1,100,30.19,10.0,Calm,Calm,-,N/A,,Overcast,0,2012-09-20 15:53:00
8:14 AM,53.6,53.6,100,30.18,10.0,North,-9999.0,-,N/A,,Overcast,0,2012-09-20 16:14:00
8:53 AM,54.0,53.1,97,30.18,10.0,North,-9999.0,-,N/A,,Overcast,0,2012-09-20 16:53:00
9:53 AM,55.0,54.0,96,30.16,10.0,North,-9999.0,-,N/A,,Mostly Cloudy,0,2012-09-20 17:53:00
10:08 AM,55.4,53.6,94,30.15,10.0,North,-9999.0,-,N/A,,Scattered Clouds,0,2012-09-20 18:08:00
10:53 AM,55.0,54.0,96,30.14,10.0,North,-9999.0,-,N/A,,Clear,0,2012-09-20 18:53:00
11:53 AM,55.9,55.0,97,30.13,10.0,North,-9999.0,-,N/A,,Clear,0,2012-09-20 19:53:00
12:53 PM,61.0,57.0,87,30.11,10.0,North,-9999.0,-,N/A,,Clear,0,2012-09-20 20:53:00
1:53 PM,60.1,57.0,90,30.10,10.0,SSW,5.8,-,N/A,,Clear,210,2012-09-20 21:53:00
2:53 PM,61.0,57.0,87,30.08,10.0,SSW,4.6,-,N/A,,Clear,210,2012-09-20 22:53:00
3:53 PM,59.0,57.0,93,30.05,10.0,Variable,3.5,-,N/A,,Clear,0,2012-09-20 23:53:00
4:53 PM,60.1,57.0,90,30.03,10.0,Variable,3.5,-,N/A,,Clear,0,2012-09-21 00:53:00
5:53 PM,61.0,57.0,87,30.01,10.0,Variable,3.5,-,N/A,,Clear,0,2012-09-21 01:53:00
7:53 PM,59.0,57.0,93,30.00,10.0,Calm,Calm,-,N/A,,Clear,0,2012-09-21 03:53:00
8:53 PM,57.9,57.0,97,30.00,10.0,Calm,Calm,-,N/A,,Clear,0,2012-09-21 04:53:00
9:53 PM,57.0,57.0,100,29.99,10.0,Calm,Calm,-,N/A,,Clear,0,2012-09-21 05:53:00
10:53 PM,57.0,57.0,100,29.99,10.0,Calm,Calm,-,N/A,,Clear,0,2012-09-21 06:53:00
11:53 PM,55.9,55.9,100,29.99,10.0,Calm,Calm,-,N/A,,Clear,0,2012-09-21 07:53:00